Location: Conjunto Santa Maria
(19.9513°S, 43.9599°W)
Time: 12:18:53
(UTC+00:00)

Cosmos 1825 - Pass Details

Date: 21 January 2021
Orbit: 501 x 507 km, 82.5° (Epoch: 03 March)

Event Time Altitude Azimuth Distance (km) Brightness Sun altitude
Rises 22:27:00 0° 172° (S) 2,617 6.0 -10.7°
Reaches altitude 10° 22:29:17 10° 163° (SSE) 1,726 5.0 -11.2°
Maximum altitude 22:32:44 33° 97° (E) 864 2.9 -12.0°
Enters shadow 22:35:01 17° 41° (NE) 1,310 3.7 -12.4°
